Welcome to the New NWS' Forecast!
Most changes are behind the scenes, but click here for differences you might notice.
Latest weather observations around

Cloquet Carlton County Airport (KCOQ)

Using English Units (Switch to International System of Units)
Date/ Time (CDT) Wind (mph) Vis. (mi) Weather Sky Cond. Temp (°F) Rel. Humidity Wind Chill (°F) Heat Index (°F) Pressure Precip. (in)
Air Dwpt 6 hour Altimeter (inHg) Sea level (inHg) 1 hr 3 hr 6 hr
Max Min
Oct 18 15:15 SSW 11 10 Clear CLR 64 32     30%     30.06        
Oct 18 14:55 S 14 10 Clear CLR 64 30     28%     30.06        
Oct 18 14:35 SSW 11 10 Clear CLR 64 30     28%     30.07        
Oct 18 14:15 SSW 9 10 Clear CLR 64 30     28%     30.08        
Oct 18 13:55 S 10 10 Clear CLR 63 30     29%     30.09        
Oct 18 13:35 SSW 14 10 Clear CLR 61 30     31%     30.1        
Oct 18 13:15 SSW 14 10 Clear CLR 61 30     31%     30.11        
Oct 18 12:55 SW 11 10 Clear CLR 57 30     36%     30.12        
Oct 18 12:35 SSW 13 10 Clear CLR 55 30     38%     30.13        
Oct 18 12:15 SSW 14 10 Clear CLR 54 28     38%     30.14        
Oct 18 11:55 SW 15 10 Clear CLR 52 28     40%     30.15        
Oct 18 11:35 SW 14 10 Clear CLR 52 28     40%     30.16        
Oct 18 11:15 SSW 15 10 Clear CLR 48 28     46% 42   30.17        
Oct 18 10:55 SSW 13 10 Clear CLR 46 28     49% 41   30.17        
Oct 18 10:35 SSW 14 10 Clear CLR 45 27     49% 38   30.18        
Oct 18 10:15 SSW 17 10 Clear CLR 45 27     49% 37   30.19        
Oct 18 09:56 SSW 15 10 Clear CLR 43 27     52% 35   30.19        
Oct 18 09:55 SSW 15 10 Clear CLR 43 27     52% 35   30.19        
Oct 18 09:35 SSW 13 10 Clear CLR 43 25     49% 36   30.2        
Oct 18 09:15 SSW 11 10 Clear CLR 39 25     56% 32   30.21        
Oct 18 08:56 SSW 13 10 Clear CLR 37 25     60% 29   30.21        
Oct 18 08:55 SSW 13 10 Clear CLR 37 25     60% 29   30.21        
Oct 18 08:35 SSW 11 10 Clear CLR 37 23     56% 30   30.22        
Oct 18 08:15 SSW 14 10 Clear CLR 36 23     60% 27   30.22        
Oct 18 07:56 SSW 10 10 Clear CLR 34 23     64% 26   30.23        
Oct 18 07:55 SSW 10 10 Clear CLR 34 23     64% 26   30.23        
Oct 18 07:35 SSW 10 10 Clear CLR 34 23     64% 26   30.24        
Oct 18 07:15 SSW 9 10 Clear CLR 32 23     69% 24   30.25        
Oct 18 06:56 SSW 10 10 Clear CLR 34 23     64% 26   30.25        
Oct 18 06:55 SSW 11 10 Clear CLR 34 23     64% 25   30.26        
Oct 18 06:35 SSW 10 10 Clear CLR 32 21     64% 24   30.27        
Oct 18 06:15 SSW 8 10 Clear CLR 30 21     69% 23   30.28        
Oct 18 05:55 SSW 7 10 Clear CLR 30 21     69% 23   30.29        
Oct 18 05:35 SSW 6 10 Clear CLR 28 19     69% 22   30.28        
Oct 18 05:15 SSW 6 10 Clear CLR 30 19     64% 24   30.29        
Oct 18 04:55 SSW 7 10 Clear CLR 30 19     64% 23   30.3        
Oct 18 04:35 SSW 7 10 Clear CLR 28 19     69% 21   30.3        
Oct 18 04:15 SSW 8 10 Clear CLR 30 19     64% 23   30.31        
Oct 18 03:55 SSW 8 10 Clear CLR 30 18     59% 23   30.32        
Oct 18 03:35 SSW 8 10 Clear CLR 30 18     59% 23   30.33        
Oct 18 03:15 S 5 10 Clear CLR 30 18     59% 25   30.33        
Oct 18 02:55 SSW 6 10 Clear CLR 30 16     55% 24   30.34        
Oct 18 02:35 SSW 5 10 Clear CLR 30 16     55% 25   30.34        
Oct 18 02:15 SSW 6 10 Clear CLR 30 16     55% 24   30.35        
Oct 18 01:55 SSW 7 10 Clear CLR 30 14     50% 23   30.35        
Oct 18 01:35 SSW 7 10 Clear CLR 30 12     47% 23   30.36        
Oct 18 01:15 SW 5 10 Clear CLR 30 10     43% 25   30.36        
Oct 18 00:55 SW 6 10 Clear CLR 30 10     43% 24   30.36        
Oct 18 00:35 SSW 6 10 Clear CLR 30 12     47% 24   30.36        
Oct 18 00:15 SSW 6 10 Clear CLR 28 12     50% 22   30.37        
Oct 17 23:56 SSW 5 10 Clear CLR 28 12     50% 23   30.37        
Oct 17 23:55 SSW 5 10 Clear CLR 28 12     50% 23   30.37        
Oct 17 23:35 SSW 3 10 Clear CLR 27 14     59% 23   30.38        
Oct 17 23:15 SSW 3 10 Clear CLR 27 16     63% 23   30.38        
Oct 17 22:55 W 3 10 Clear CLR 27 16     63% 23   30.38        
Oct 17 22:35 Calm 10 Clear CLR 27 18     68%     30.38        
Oct 17 22:15 Calm 10 Clear CLR 27 18     68%     30.38        
Oct 17 21:56 Calm 10 Clear CLR 27 18     68%     30.39        
Oct 17 21:55 Calm 10 Clear CLR 27 18     68%     30.39        
Oct 17 21:35 Calm 10 Clear   27 16     63%     30.38        
Oct 17 21:15 Calm 10 Clear   27 16     63%     30.38        
Oct 17 20:56 Calm 10 Clear   28 14     54%     30.37        
Oct 17 20:55 Calm 10 Clear   28 14     54%     30.37        
Oct 17 20:35 Calm 10 Clear CLR 28 14     54%     30.38        
Oct 17 20:15 Calm 10 Clear CLR 28 16     59%     30.38        
Oct 17 19:56 Calm 10 Clear CLR 30 14     50%     30.38        
Oct 17 19:55 WSW 3 10 Clear CLR 30 14     50% 27   30.38        
Oct 17 19:35 Calm 10 Clear CLR 28 16     59%     30.38        
Oct 17 19:15 W 3 10 Clear CLR 30 14     50% 27   30.38        
Oct 17 18:55 Calm 10 Clear CLR 34 12     40%     30.37        
Oct 17 18:35 W 3 10 Clear CLR 36 10     35% 33   30.37        
Oct 17 18:15 WNW 5 10 Clear CLR 37 9     30% 34   30.37        
Oct 17 17:55 WNW 5 10 Clear CLR 39 9     28% 36   30.37        
Oct 17 17:35 W 8 10 Clear CLR 39 7     26% 34   30.37        
Oct 17 17:15 WNW 8 10 Clear CLR 39 9     28% 34   30.36        
Oct 17 16:55 W 11 10 Clear CLR 41 7     24% 34   30.36        
Oct 17 16:35 WNW 8 10 Clear CLR 41 9     26% 36   30.36        
Oct 17 16:15 NW 11 10 Clear CLR 41 9     26% 34   30.35        
Oct 17 15:55 W 11 10 Clear CLR 41 10     28% 34   30.35        
Oct 17 15:35 WNW 14 10 Clear CLR 41 10     28% 33   30.36        
Oct 17 15:15 W 13 10 Clear CLR 41 10     28% 34   30.35        
Oct 17 14:55 W 14 10 Clear CLR 41 10     28% 33   30.34        
Oct 17 14:35 W 13 10 Clear CLR 39 10     30% 32   30.34        
Oct 17 14:15 WNW 9 10 Clear CLR 39 10     30% 33   30.34        
Oct 17 13:55 W 9 10 Clear CLR 39 12     33% 33   30.34        
Oct 17 13:35 W 13 10 Clear CLR 39 12     33% 32   30.34        
Oct 17 13:15 WNW 13 10 Clear CLR 39 12     33% 32   30.34        
Oct 17 12:55 W 16 10 Clear CLR 39 14     35% 30   30.34        
Oct 17 12:35 WNW 13 10 Clear CLR 37 16     41% 29   30.34        
Oct 17 12:15 NW 16 10 Clear CLR 37 14     38% 28   30.33        
Oct 17 11:55 NW 17 10 Clear CLR 37 12     35% 28   30.33        
Oct 17 11:36 WNW 13 10 Clear CLR 37 16     41% 29   30.32        
Oct 17 11:35 WNW 14 10 Clear CLR 37 16     41% 29   30.32        
Oct 17 11:15 WNW 17 10 Clear   36 16     44% 25   30.31        
Oct 17 10:55 WNW 15 10 Partly Cloudy SCT040 36 16     44% 26   30.3        
Oct 17 10:35 WNW 14 10 Clear CLR 36 18     48% 27   30.29        
Oct 17 10:15 NW 14 10 Clear CLR 36 18     48% 27   30.28        
Oct 17 09:55 NW 13 10 Clear CLR 34 16     47% 25   30.27        
Oct 17 09:35 WNW 16 10 Partly Cloudy SCT030 34 19     55% 24   30.26        
Oct 17 09:15 NW 14 10 Partly Cloudy SCT030 34 19     55% 24   30.24        
Oct 17 08:55 WNW 11 10 Partly Cloudy SCT030 34 25     69% 25   30.23        
Oct 17 08:35 WNW 10 10 Clear CLR 32 25     74% 24   30.22        
Oct 17 08:15 W 16 10 Clear CLR 32 25     74% 21   30.2        
Oct 17 07:55 W 14 10 Partly Cloudy SCT035 32 25     74% 22   30.19        
Oct 17 07:35 W 14 10 Mostly Cloudy SCT022 SCT029 BKN035 32 25     74% 22   30.19        
Oct 17 07:15 W 11 10 Cloudy BKN024 OVC031 34 25     69% 25   30.18        
Oct 17 06:55 WNW 10 10 Mostly Cloudy BKN024 34 25     69% 26   30.17        
Oct 17 06:35   10 Partly Cloudy SCT026 32 25     74%     30.17        
Oct 17 06:15 W 6 10 Cloudy SCT026 OVC065 30 25     80% 24   30.17        
Oct 17 05:56 W 9 10 Cloudy OVC065 32 25     74% 24   30.16        
Oct 17 05:55 W 8 10 Cloudy OVC065 32 25     74% 25   30.16        
Oct 17 05:35 W 8 10 Cloudy OVC065 30 27     86% 23   30.15        
Oct 17 05:15 WSW 7 10 Cloudy OVC065 30 25     80% 23   30.15        
Oct 17 04:55 WSW 9 10 Cloudy OVC065 30 25     80% 22   30.15        
Oct 17 04:35 W 8 10 Mostly Cloudy BKN065 30 25     80% 23   30.14        
Oct 17 04:15 W 8 10 Partly Cloudy SCT039 SCT065 30 25     80% 23   30.14        
Oct 17 03:55 WSW 7 10 Clear CLR 28 23     80% 21   30.14        
Oct 17 03:35 WSW 7 10 Clear CLR 28 21     74% 21   30.13        
Oct 17 03:15 WSW 7 10 Clear CLR 30 21     69% 23   30.13        
Oct 17 02:55 W 7 10 Clear CLR 28 19     69% 21   30.13        
Oct 17 02:35 W 7 10 Clear CLR 30 19     64% 23   30.13        
Oct 17 02:15 WNW 9 10 Partly Cloudy SCT037 32 19     59% 24   30.12        
Oct 17 01:55 WNW 13 10 Cloudy OVC037 34 19     55% 25   30.12        
Oct 17 01:35 NW 9 10 Cloudy OVC037 34 19     55% 26   30.12        
Oct 17 01:15 NW 11 10 Cloudy BKN034 OVC042 34 19     55% 25   30.11        
Oct 17 00:55 WNW 11 10 Cloudy OVC032 34 19     55% 25   30.11        
Oct 17 00:35 W 6 10 Cloudy OVC032 34 21     60% 29   30.11        
Oct 17 00:15 WNW 9 10 Cloudy OVC030 34 21     60% 26   30.11        
Oct 16 23:55 NW 9 10 Cloudy OVC030 34 21     60% 26   30.11        
Oct 16 23:35 NW 9 10 Cloudy OVC030 34 21     60% 26   30.11        
Oct 16 22:55 WNW 13 10 Cloudy OVC030 34 21     60% 25   30.09        
Oct 16 22:35 WNW 11 10 Cloudy OVC030 34 21     60% 25   30.09        
Oct 16 22:15 WNW 13 10 Cloudy OVC028 34 23     64% 25   30.08        
Oct 16 21:55 NW 11 10 Cloudy OVC028 34 25     69% 25   30.07        
Oct 16 21:35 NW 13 10 Cloudy OVC026 34 25     69% 25   30.06        
Oct 16 21:15 NW 7 10 Cloudy BKN026 OVC034 36 25     64% 30   30.06        
Oct 16 20:55 WNW 14 10 Cloudy OVC032 36 25     64% 27   30.06        
Oct 16 20:35 NW 8 10 Cloudy OVC032 36 23     60% 29   30.05        
Oct 16 20:15 WNW 13 10 Cloudy OVC032 36 23     60% 27   30.06        
Oct 16 19:55 WNW 14 10 Cloudy OVC030 36 23     60% 27   30.05        
Oct 16 19:35   10 Clear   36 23     60%     30.05        
Oct 16 19:15 WNW 13 10 Clear   36 25     64% 27   30.04        
Oct 16 18:55 WNW 14 10 Clear   37 25     60% 29   30.03        
Oct 16 18:35   10 Cloudy OVC032 37 25     60%     30.03        
Oct 16 18:15 WNW 15 10 Cloudy OVC032 37 25     60% 29   30.02        
Oct 16 17:56   10 Cloudy OVC032 37 27     65%     30.01        
Oct 16 17:55   10 Cloudy OVC032 37 27     65%     30.01        
Oct 16 17:35 WNW 10 10 Cloudy OVC034 37 25     60% 30   30.01        
Oct 16 17:15 WNW 13 10 Cloudy OVC034 37 25     60% 29   30        
Oct 16 16:55 WNW 14 10 Cloudy OVC034 37 25     60% 29   29.99        
Oct 16 16:35 NW 18 10 Cloudy OVC034 39 25     56% 30   29.99        
Oct 16 16:15 WNW 15 10 Cloudy OVC036 39 25     56% 31   29.98        
Oct 16 15:55 WNW 15 10 Cloudy OVC038 41 25     52% 33   29.97        
Oct 16 15:35 WNW 15 10 Mostly Cloudy BKN038 41 25     52% 33   29.96        
Oct 16 15:15   10 Mostly Cloudy BKN040 43 25     49%     29.95        
Oct 16 14:55   10 Cloudy OVC040 45 25     45%     29.94        
Oct 16 14:36   10 Mostly Cloudy BKN040 45 25     45%     29.94        
Oct 16 14:35   10 Mostly Cloudy BKN040 45 25     45%     29.94        
Oct 16 14:15 WNW 15 10 Partly Cloudy SCT040 43 25     49% 35   29.93        
Oct 16 13:55 W 18 10 Partly Cloudy SCT038 45 25     45% 37   29.93        
Oct 16 13:35 W 15 10 Mostly Cloudy BKN038 45 27     49% 38   29.93        
Oct 16 13:15 WNW 18 10 Mostly Cloudy BKN036 45 27     49% 37   29.93        
Oct 16 12:55   10 Cloudy OVC034 45 27     49%     29.93        
Oct 16 12:35 WNW 17 10 Cloudy OVC034 43 27     52% 35   29.93        
Oct 16 12:15 WNW 17 10 Mostly Cloudy BKN034 43 27     52% 35   29.93        
Oct 16 11:55   10 Cloudy OVC032 43 27     52%     29.93        
Oct 16 11:35 WNW 18 10 Cloudy OVC032 43 27     52% 35   29.92        
Oct 16 11:15 WNW 21 10 Mostly Cloudy and Windy BKN034 43 27     52% 34   29.92        
Oct 16 10:55 WNW 20 10 Mostly Cloudy and Windy BKN034 43 27     52% 34   29.9        
Oct 16 10:35 WNW 16 10 Mostly Cloudy BKN034 43        % 35   29.89        
Oct 16 10:15 WNW 17 10 Mostly Cloudy BKN032 43        % 35   29.89        
Oct 16 09:55 WNW 18 10 Clear CLR 43        % 35   29.88        
Oct 16 09:35 WNW 14 10 Clear CLR 41        % 33   29.87        
Oct 16 09:15   10 Clear CLR 41        %     29.87        
Oct 16 08:55   10 Clear CLR 39        %     29.86        
Oct 16 08:35 W 11 10 Clear CLR 37        % 30   29.85        
Oct 16 08:15 W 11 10 Clear CLR 37        % 30   29.84        
Oct 16 07:55 W 11 10 Clear CLR 37        % 30   29.83        
Oct 16 07:35 W 9 10 Clear CLR 36        % 29   29.82        
Oct 16 07:15 W 9 10 Clear CLR 36        % 29   29.82        
Oct 16 06:56 WSW 8 10 Clear CLR 36        % 29   29.81        
Oct 16 06:36 SW 7 10 Clear CLR 36        % 30   29.8        
Oct 16 06:35 WSW 7 10 Clear CLR 36        % 30   29.8        
Oct 16 06:15 WSW 6 10 Clear CLR 34        % 29   29.8        
Oct 16 05:59   10 Partly Cloudy SCT047 36        %     29.81        
Oct 16 05:35 WSW 7 10 Clear CLR 34        % 28   29.8        
Oct 16 05:15 SW 6 10 Clear CLR 36        % 31   29.8        
Oct 16 04:55 SW 7 10 Clear CLR 36        % 30   29.8        
Oct 16 04:35 SW 8 10 Clear CLR 36        % 29   29.8        
Oct 16 04:15 SW 8 10 Clear CLR 36        % 29   29.8        
Oct 16 03:55 SW 8 10 Clear CLR 36        % 29            
Oct 16 03:35 SW 8 10 Clear CLR 37 25     60% 31   29.81        
Oct 16 03:15 SW 9 10 Partly Cloudy SCT055 37 25     60% 31   29.82        
Oct 16 02:56 SW 8 10 Partly Cloudy SCT055 37 25     60% 31   29.82        
Oct 16 02:35 SW 10 10 Mostly Cloudy BKN090 39 25     56% 33   29.82        
Oct 16 02:15 SW 10 10 Cloudy OVC090 39 25     56% 33   29.82        
Oct 16 01:56 SW 9 10 Cloudy OVC090 39 23     52% 33   29.82        
Oct 16 01:35 SSW 10 10 Cloudy OVC090 39 21     48% 33   29.82        
Oct 16 01:15 SSW 11 10 Cloudy OVC090 39 21     48% 32   29.82        
Oct 16 00:55 SSW 9 10 Cloudy OVC090 39 21     48% 33   29.83        
Oct 16 00:35 SSW 10 10 Cloudy OVC100 39 21     48% 33   29.83        
Oct 16 00:15 SSW 11 10 Cloudy OVC100 39 21     48% 32   29.83        
Oct 15 23:56 SSW 9 10 Cloudy SCT080 OVC110 39 21     48% 33   29.84        
Oct 15 23:55 SSW 10 10 Cloudy SCT080 OVC110 39        % 33   29.84        
Oct 15 23:35 SSW 14 10 Cloudy SCT060 BKN080 OVC110 39        % 31   29.84        
Oct 15 23:15 SSW 13 10 Cloudy OVC060 39 21     48% 32   29.85        
Oct 15 22:55 SSW 13 10 Cloudy BKN060 OVC070 39 19     45% 32   29.86        
Oct 15 22:35 SSW 13 10 Cloudy OVC060 39        % 32   29.87        
Oct 15 22:15 SSW 11 10 Cloudy OVC070 39        % 32   29.88        
Oct 15 21:55 SSW 11 10 Cloudy OVC070 39        % 32   29.9        
Oct 15 21:35 SSW 14 10 Cloudy OVC080 37        % 29   29.91        
Oct 15 21:15 SSW 10 10 Cloudy OVC080 37        % 30   29.92        
Oct 15 20:55 SSW 11 10 Cloudy OVC090 37        % 30   29.92        
Oct 15 20:35 SSW 11 10 Cloudy OVC090 37        % 30   29.93        
Oct 15 20:15 SSW 10 10 Cloudy OVC100 37        % 30   29.94        
Oct 15 19:56 SSW 8 10 Cloudy OVC100 37        % 31   29.95        
Oct 15 19:35 SSW 9 10 Cloudy OVC110 37 18     44% 31   29.95        
Oct 15 19:15 SSW 8 10 Mostly Cloudy BKN120 37 18     44% 31   29.96        
Oct 15 18:56 SW 10 10 Clear CLR 37 18     44% 30   29.96        
Oct 15 18:55 SW 9 10 Clear CLR 37 18     44% 31   29.96        
Oct 15 18:35 SW 8 10 Clear CLR 37 19     48% 31   29.96        
Oct 15 18:15 SW 8 10 Clear CLR 39 19     45% 34   29.97        
Oct 15 17:55 SW 15 10 Clear CLR 39 19     45% 31   29.98        
Oct 15 17:35 SW 11 10 Clear CLR 39 19     45% 32   29.98        
Oct 15 17:15 SW 13 10 Clear CLR 41 19     42% 34   29.98        
Oct 15 16:55 WSW 17 10 Clear CLR 41 19     42% 32   29.99        
Oct 15 16:35 WSW 15 10 Clear CLR 41        % 33   30        
Oct 15 16:15 WSW 16 10 Clear CLR 41        % 33   30.01        
Oct 15 15:55 WSW 14 10 Partly Cloudy SCT042 41        % 33   30.01        
Oct 15 15:35 WSW 13 10 Clear CLR 41        % 34   30.01        
Oct 15 15:15 WSW 11 10 Clear CLR 43 21     42% 37   30.02        
Oct 15 14:55 SW 13 10 Partly Cloudy SCT040 41 21     45% 34   30.02        
Oct 15 14:35 WSW 16 10 Partly Cloudy SCT038 41 21     45% 33   30.03        
Oct 15 14:15 WSW 11 10 Partly Cloudy SCT036 39 21     48% 32   30.04        
Oct 15 13:55 SW 17 10 Partly Cloudy SCT034 39 21     48% 30   30.04        
Oct 15 13:35 SW 15 10 Partly Cloudy SCT034 39 21     48% 31   30.05        
Oct 15 13:15 WSW 14 10 Partly Cloudy SCT034 37 21     52% 29   30.05        
Oct 15 12:55 W 10 10 Partly Cloudy SCT030 37        % 30   30.06        
Oct 15 12:35 WNW 13 10 Mostly Cloudy BKN030 37        % 29   30.06        
Oct 15 12:15 W 16 10 Mostly Cloudy BKN028 37        % 28   30.07        
Oct 15 11:55 W 11 10 Mostly Cloudy BKN028 36        % 28   30.08        
Oct 15 11:35 W 14 10 Cloudy OVC026 37        % 29   30.08        
Oct 15 11:15 W 8 10 Cloudy OVC024 36 25     64% 29   30.08        
Oct 15 10:55 W 9 10 Cloudy OVC024 34        % 26   30.08        
Oct 15 10:38 W 13 10 Cloudy OVC024 34        % 25   30.08        
Oct 15 10:15 WNW 14 10 Mostly Cloudy BKN024 34        % 24   30.08        
Oct 15 09:56 W 7 10 Partly Cloudy SCT019 SCT025 32        % 26   30.08        
Oct 15 09:35 W 11 10 Mostly Cloudy BKN019 30        % 21   30.07        
Oct 15 09:15 W 14 10 Partly Cloudy SCT017 30        % 20   30.07        
Oct 15 08:55 W 10 10 Clear CLR 30 23     74% 21   30.06        
Oct 15 08:35 W 10 10 Partly Cloudy SCT017 28 23     80% 19   30.06        
Oct 15 08:15 W 9 10 Mostly Cloudy BKN017 BKN023 28        % 20   30.06        
Oct 15 07:55 W 13 10 Cloudy OVC019 28        % 18   30.05        
Oct 15 07:35 W 8 10 Cloudy BKN019 OVC060 28        % 20   30.05        
Oct 15 07:15 W 11 10 Mostly Cloudy SCT016 BKN060 28        % 19   30.05        
Oct 15 06:55 W 10 10 Mostly Cloudy SCT019 BKN026 28        % 19   30.05        
Oct 15 06:35 W 10 10 Cloudy BKN017 BKN023 OVC035 28        % 19   30.04        
Oct 15 06:15 W 10 10 Cloudy SCT019 SCT023 OVC035 28        % 19   30.04        
Oct 15 05:55 W 13 10 Cloudy SCT019 BKN033 OVC055 28        % 18   30.04        
Oct 15 05:35 W 13 3 Light Snow SCT018 BKN040 OVC055 28        % 18   30.03        
Oct 15 05:15 W 11 2 Light Snow BKN015 OVC021 28        % 19   30.03        
Oct 15 04:55 WSW 8 7 Light Snow BKN015 BKN021 OVC055 28        % 20   30.03        
Oct 15 04:35 W 8 7 Light Snow SCT023 BKN060 OVC080 28        % 20   30.03        
Oct 15 04:15 W 9 4 Light Snow SCT023 BKN055 OVC080 28        % 20   30.03        
Oct 15 03:55 WSW 6 10 Light Snow BKN065 OVC080 30        % 24   30.03        
Oct 15 03:35 WSW 7 10 Light Snow SCT039 BKN060 OVC080 30 23     74% 23   30.03        
Oct 15 03:15 WSW 7 10 Cloudy SCT032 SCT044 OVC060 30        % 23   30.03        
Oct 15 02:55 WSW 7 4 Light Snow SCT032 BKN049 OVC060 30        % 23   30.04        
Oct 15 02:35 W 7 10 Cloudy OVC060 30 21     69% 23   30.04        
Oct 15 02:15 W 7 10 Cloudy OVC050 30 21     69% 23   30.05        
Oct 15 01:55 W 9 10 Cloudy OVC050 30        % 22   30.05        
Oct 15 01:35 W 8 10 Cloudy OVC050 30 19     64% 23   30.05        
Oct 15 01:15 W 6 10 Cloudy OVC050 30 19     64% 24   30.05        
Oct 15 00:55 W 6 10 Cloudy OVC050 30 19     64% 24   30.05        
Oct 15 00:35 W 8 10 Clear   32        % 25   30.05        
Oct 15 00:15 W 7 10 Cloudy OVC043 32        % 26   30.05        
Oct 14 23:55 W 5 10 Clear   32 19     59% 27   30.06        
Oct 14 23:35 W 7 10 Cloudy OVC039 32 19     59% 26   30.06        
Oct 14 23:15 W 6 10 Cloudy OVC039 32 19     59% 26   30.06        
Oct 14 22:55 W 6 10 Cloudy OVC039 32 19     59% 26   30.06        
Oct 14 22:35 W 9 10 Cloudy OVC041 34 21     60% 26   30.07        
Oct 14 22:15 W 5 10 Cloudy OVC041 32 21     64% 27   30.07        
Oct 14 21:55 WSW 3 10 Cloudy OVC041 34 21     60% 31   30.07        
Oct 14 21:35 W 6 10 Cloudy OVC041 34 21     60% 29   30.07        
Oct 14 21:15 W 3 10 Cloudy OVC039 34 19     55% 31   30.07        
Oct 14 20:55 W 5 10 Cloudy OVC039 34 19     55% 29   30.08        
Oct 14 20:35 W 5 10 Cloudy OVC039 34 19     55% 29   30.08        
Oct 14 20:15 W 3 10 Cloudy OVC039 34 19     55% 31   30.08        
Oct 14 19:55 W 6 10 Cloudy OVC037 34 19     55% 29   30.08        
Oct 14 19:35 W 8 10 Cloudy OVC039 34 19     55% 27   30.08        
Oct 14 19:15 W 6 10 Cloudy OVC037 34 21     60% 29   30.08        
Oct 14 18:55 W 7 10 Cloudy OVC035 34 21     60% 28   30.07        
Oct 14 18:35 W 7 10 Cloudy OVC037 34 21     60% 28   30.07        
Oct 14 18:15 W 7 10 Cloudy OVC037 34 21     60% 28   30.06        
Oct 14 17:55 W 6 10 Cloudy OVC035 34 21     60% 29   30.06        
Oct 14 17:35 WNW 7 10 Cloudy OVC035 34 21     60% 28   30.05        
Oct 14 17:15 WNW 7 10 Cloudy SCT030 OVC039 34 21     60% 28   30.05        
Oct 14 16:55 WNW 3 10 Cloudy BKN030 OVC037 36 25     64% 33   30.05        
Oct 14 16:35 W 6 10 Cloudy SCT030 OVC037 36 25     64% 31   30.06        
Oct 14 16:15 W 6 10 Cloudy BKN037 OVC045 36 23     60% 31   30.06        
Oct 14 15:55 WNW 6 10 Cloudy OVC046 36 25     64% 31   30.05        
Oct 14 15:35 W 9 10 Cloudy SCT023 SCT034 OVC046 36 25     64% 29   30.05        
Oct 14 15:15 W 9 10 Cloudy SCT021 BKN030 OVC090 36 25     64% 29   30.05        
Oct 14 14:55 W 6 10 Cloudy SCT021 BKN034 OVC100 36 25     64% 31   30.06        
Oct 14 14:35 W 9 5 Light Snow SCT019 BKN030 OVC038 34 25     69% 26   30.06        
Oct 14 14:15 W 10 7 Cloudy SCT019 SCT028 OVC036 36 23     60% 28   30.06        
Oct 14 13:55 W 8 10 Mostly Cloudy BKN038 36 21     55% 29   30.06        
Oct 14 13:35 W 7 10 Cloudy BKN037 OVC043 36 19     51% 30   30.06        
Oct 14 13:15 WSW 5 10 Mostly Cloudy BKN037 36 21     55% 32   30.06        
Oct 14 12:55 Calm 10 Partly Cloudy SCT015 SCT020 SCT035 34 23     64%     30.06        
Oct 14 12:35 W 7 3 Light Snow BKN014 BKN022 OVC042 34 23     64% 28   30.07        
Oct 14 12:15 W 8 10 Cloudy BKN038 OVC044 36 19     51% 29   30.09        
Oct 14 11:55 WSW 9 10 Cloudy OVC042 36 19     51% 29   30.07        
Oct 14 11:35 W 6 10 Cloudy OVC040 34 19     55% 29   30.07        
Oct 14 11:15 W 7 10 Cloudy OVC038 34 19     55% 28   30.06        
Oct 14 10:55 W 5 10 Cloudy OVC040 34 19     55% 29   30.06        
Oct 14 10:35 W 5 10 Cloudy OVC040 34 21     60% 29   30.06        
Oct 14 10:15 W 3 10 Cloudy OVC040 34 21     60% 31   30.05        
Oct 14 09:55 W 5 10 Cloudy OVC040 34 21     60% 29   30.05        
Oct 14 09:35 W 3 10 Cloudy OVC038 34 21     60% 31   30.05        
Oct 14 09:15 WSW 3 10 Cloudy OVC036 34 21     60% 31   30.06        
Oct 14 08:55 WSW 3 10 Cloudy OVC036 32 21     64% 29   30.04        
Oct 14 08:35 Calm 10 Cloudy OVC036 32 23     69%     30.04        
Oct 14 08:15 W 3 10 Cloudy OVC036 32 21     64% 29   30.04        
Oct 14 07:55 WSW 3 10 Cloudy OVC036 32 23     69% 29   30.03        
Oct 14 07:35 Calm 10 Cloudy OVC036 30 21     69%     30.03        
Oct 14 07:15 WNW 3 10 Cloudy OVC034 32 21     64% 29   30.02        
Oct 14 06:55 Calm 10 Cloudy OVC034 32 21     64%     30.02        
Oct 14 06:35 WNW 3 10 Cloudy OVC034 32 21     64% 29   30.01        
Oct 14 06:15 WNW 3 10 Cloudy OVC034 32 21     64% 29   30        
Oct 14 05:56 W 5 10 Cloudy OVC034 32 21     64% 27   30.01        
Oct 14 05:35 W 3 10 Cloudy BKN034 OVC110 34 21     60% 31   30.01        
Oct 14 05:15 WNW 6 10 Cloudy BKN034 OVC110 34 21     60% 29   30        
Oct 14 04:55 WNW 3 10 Cloudy OVC034 32 21     64% 29   30        
Oct 14 04:35 WNW 5 10 Cloudy BKN034 OVC110 32 21     64% 27   29.99        
Oct 14 04:15 NW 3 10 Cloudy SCT034 OVC110 32 19     59% 29   29.98        
Oct 14 03:55 NW 5 10 Cloudy SCT034 OVC110 32 19     59% 27   29.98        
Oct 14 03:35 NW 7 1 Cloudy OVC110 32 19     59% 26   29.98        
Oct 14 03:15 WNW 7 10 Cloudy SCT034 OVC110 32 19     59% 26   29.98        
Oct 14 02:55 NW 9 10 Cloudy OVC034 32 19     59% 24   29.98        
Oct 14 02:35 NW 6 10 Cloudy OVC034 34 19     55% 29   29.98        
Oct 14 02:15 WNW 9 10 Cloudy OVC036 34 19     55% 26   29.97        
Oct 14 01:55 WNW 8 10 Cloudy OVC034 34 21     60% 27   29.97        
Oct 14 01:35 W 7 10 Cloudy OVC034 34 21     60% 28   29.97        
Oct 14 01:15 WNW 7 10 Mostly Cloudy BKN032 34 21     60% 28   29.96        
Oct 14 00:55 WNW 9 10 Clear CLR 32 21     64% 24   29.95        
Oct 14 00:35 WNW 10 10 Mostly Cloudy BKN039 34 19     55% 26   29.95        
Oct 14 00:15   10 Cloudy OVC032 34 19     55%     29.95        
Oct 13 23:55 WNW 13 10 Cloudy OVC032 36 23     60% 27   29.94        
Oct 13 23:35 WNW 13 10 Cloudy OVC034 36 25     64% 27   29.93        
Oct 13 23:15 WNW 7 10 Cloudy OVC034 36 25     64% 30   29.92        
Oct 13 22:55 WNW 10 10 Cloudy OVC034 36 25     64% 28   29.92        
Oct 13 22:35 W 8 10 Cloudy OVC036 36 25     64% 29   29.91        
Oct 13 22:15 W 7 10 Cloudy OVC036 36 25     64% 30   29.9        
Oct 13 21:55 WNW 8 10 Cloudy OVC032 37 25     60% 31   29.88        
Oct 13 21:35 W 10 10 Cloudy OVC030 37 25     60% 30   29.88        
Oct 13 21:15 W 9 10 Cloudy OVC028 37 27     65% 31   29.88        
Oct 13 20:56 W 9 10 Cloudy OVC026 37 27     65% 31   29.87        
Oct 13 20:55 W 9 10 Cloudy OVC026 37 27     65% 31   29.87        
Oct 13 20:35 WNW 10 10 Cloudy OVC026 37 28     70% 30   29.86        
Oct 13 20:15 NW 11 10 Cloudy BKN026 OVC034 37 28     70% 30   29.85        
Oct 13 19:56 WNW 10 10 Cloudy OVC033 37 28     70% 30   29.84        
Oct 13 19:55 WNW 9 10 Cloudy OVC033 37 28     70% 31   29.84        
Oct 13 19:35 W 14 10 Cloudy BKN029 OVC034 37 28     70% 29   29.83        
Oct 13 19:15 W 11 10 Cloudy OVC028 39 30     70% 32   29.82        
Oct 13 18:56 W 13 10 Cloudy SCT024 OVC032 39 30     70% 32   29.81        
Oct 13 18:55 W 13 10 Cloudy SCT024 OVC032 39 30     70% 32   29.81        
Oct 13 18:35 W 16 10 Cloudy SCT024 OVC034 39 30     70% 30   29.79        
Oct 13 18:15 W 14 10 Cloudy BKN019 BKN024 OVC034 41 30     65% 33   29.78        
Oct 13 17:55   10 Cloudy OVC019 43 34     70%     29.76        
Oct 13 16:56 WSW 13 10 Cloudy OVC023 46 36     66% 41   29.71        
Oct 13 16:55 WSW 9 10 Cloudy OVC023 46 36     66% 42   29.71        
Oct 13 16:35 WSW 14 10 Cloudy OVC023 46 36     66% 40   29.7        
May 15 12:55 ESE 10 5 Haze CLR 57 28     33%     30.09        
May 15 10:15 ESE 9 5 Haze CLR 54 30     41%     30.1        
May 15 04:15 NW 3 10 Clear   48 25     40% 47   30.03        
May 15 01:15 N 11 10 Clear CLR 59 25     27%     29.95        
May 15 00:15 N 6 10 Clear CLR 61 27     27%     29.93        
May 14 22:55 NNW 7 10 Clear CLR 63 30     29%     29.9        
May 14 20:35 WNW 3 10 Clear CLR 68 48     49%              
May 14 20:15 W 6 10 Clear CLR 70 48     46%     29.84        
Notice The following observation data may not be complete
May 14 18:35   10 Mostly Cloudy BKN100          %              
May 14 12:15 W 8 10 Partly Cloudy SCT065 77 41     28%   76 29.86        
May 14 05:55 W 6 10 Clear CLR 55 41     58%     29.87        
May 13 17:15 W 14 10 Clear CLR 73        %     29.88        
May 13 12:55 W 7 10 Clear CLR 68        %     29.96        
May 13 07:55 W 3 10 Clear CLR 48 30     50% 47   30.04        
Notice The following observation data may not be complete
May 13 04:35   10 Clear CLR          %              
May 13 03:35 Calm 10 Clear CLR 30 25     80%     30.05        
May 12 17:35 ESE 5 10 Clear CLR 59 18     20%     30.11        
May 12 13:35 ESE 8 10 Clear CLR 61        %     30.13        
May 12 08:35 E 5 10 Clear CLR 45 21     39% 42   30.17        
May 12 07:55 Calm 10 Clear CLR 39 25     56%     30.16        
May 12 07:15 Calm 10 Clear CLR 34 23     64%     30.16        
May 12 02:55 Calm 10 Clear CLR 28 19     69%     30.12        
May 11 22:55 Calm 10 Clear CLR 36 14     41%     30.11        
May 11 20:15 E 7 10 Clear CLR 43        % 39   30.07        
May 11 18:55 ESE 9 10 Clear CLR 46        % 42   30.07        
May 11 13:15 E 11 10 Clear CLR 52 16     24%     30.08        
May 11 09:35 E 8 10 Clear CLR 45 25     45% 40   30.12        
Jun 12 05:55 Calm 0.5 Fog VV005 55 52     88%     29.86        
Jun 12 01:55 Calm 7 Clear CLR 57 55     94%     29.8        
Jun 11 22:15 Calm 10 Clear CLR 57 55     94%     29.75        
Jun 11 21:35 Calm 7 Clear CLR 61 55     82%     29.74        
Notice The following observation data may not be complete
Jun 11 20:14   10 Clear CLR          %              
Jun 11 18:15 SE 6 10 Cloudy OVC023 64 57     77%     29.72        
Jun 11 14:15 SSW 3 10 Clear CLR 63 54     72%     29.75        
Jun 10 23:35 W 6 10 Clear CLR 66 52     60%     29.66        
Jun 10 21:55 W 7 10 Clear CLR 72 54     53%   71          
Jun 10 19:35 W 10 10 Clear CLR 81 54     39%   80 29.51        
Notice The following observation data may not be complete
Jun 10 19:15   10 Clear CLR          %              
Jun 10 17:55   10 Clear CLR 84 57     40%   83 29.45        
Jun 10 16:35 WSW 23 10 Partly Cloudy and Windy SCT050 SCT055 88 61     40%   88 29.4        
Jun 10 11:55 SSW 21 10 Clear and Windy CLR 84 61     45%   84 29.37        
Jun 09 22:15 E 8 10 Clear CLR 54 46     77%     29.68        
Jun 09 20:35 E 8 10 Clear CLR 57 48     72%     29.7        
Jun 09 13:55 ESE 8 10 Clear CLR 72 55     57%   71 29.82        
Notice The following observation data may not be complete
Jun 09 10:34   10 Clear CLR          %              
Jun 09 08:55 E 8 10 Clear CLR 63 55     77%     29.89        
Jun 08 23:15 E 5 10 Clear CLR 57 50     77%     29.88        
Jun 08 21:55 Calm 10 Mostly Cloudy BKN090 61 48     63%     29.88        
Jun 08 21:15 Calm 10 Partly Cloudy SCT080 63 48     59%     29.87        
Jun 08 14:35 NNW 11 10 Cloudy BKN050 BKN060 OVC080 75 54     47%   75 29.87        
Jun 08 11:14 NNW 10 10 Clear CLR 73 54     50%   73 29.89        
Jun 08 10:35 NNW 10 10 Partly Cloudy SCT037 72 54     53%   71 29.89        
Jun 07 21:35 SSW 3 10 Light Rain SCT120 66 50     56%     29.98        
Jun 07 13:55 S 7 10 Clear CLR 79 43     28%   78 30.04        
Jun 07 11:55 S 10 10 Clear CLR 75 43     31%   74 30.09        
Jun 07 11:35 SSE 9 7 Clear CLR 73 45     36%   72 30.09        
Jun 06 13:55 SE 3 10 Clear CLR 73 37     27%   72 30.13        
Jun 06 11:35 SSW 7 10 Clear CLR 70 30     23%     30.16        
Jun 06 05:55 Calm 10 Clear CLR 39 36     87%     30.15        
Jun 06 05:35 Calm 10 Clear CLR 41 36     81%     30.14        
Jun 06 01:35 Calm 10 Clear CLR 43 37     81%     30.12        
Jun 05 21:55 E 3 10 Clear CLR 55 36     47%     30.1        
Notice The following observation data may not be complete
Jun 05 20:15   10 Clear CLR          %